User: anonymous
Location: NJAA Observatory
(40.6819°N, 74.8979°W)
Time: 22:13:52
(UTC-04:00)
Language:

Cosmos 2082 - Orbit

View from above orbital plane
View from above orbital plane
View from above satellite
View from above satellite

Ground track
Ground track

The orbit data is extracted from the following two-line orbital elements,

1 20624U 90046A   14245.30821332 -.00000251  00000-0 -10696-3 0    09
2 20624 071.0418 186.9628 0013070 148.5707 005.8783 14.14092573253153
Epoch (UTC): 02 September 2014 07:23:49
Eccentricity: 0.0013070
inclination: 71.0418°
perigee height: 836 km
apogee height: 855 km
right ascension of ascending node: 186.9628°
argument of perigee: 148.5707°
revolutions per day: 14.14092573
mean anomaly at epoch: 5.8783°
orbit number at epoch: 25315

The dashed part of the orbit path shows where the satellite is in the earth's shadow,  

DLR